Waarnemingen

Advertentie
Mijn weer
Feldberg/Mecklenburg, Duitsland (10282): temperatuur & dauwpunt: 09.08.2018 01:00:00 - 15.08.2018 01:00:00 (CEST)Feldberg/Mecklenburg, Duitsland (10282): temperatuur 5cm & temperatuur -5cm: 09.08.2018 01:00:00 - 15.08.2018 01:00:00 (CEST)Feldberg/Mecklenburg, Duitsland (10282): temperatuur -20cm & temperatuur -100cm: 09.08.2018 01:00:00 - 15.08.2018 01:00:00 (CEST)Feldberg/Mecklenburg, Duitsland (10282): windsnelheid & windstoten: 09.08.2018 01:00:00 - 15.08.2018 01:00:00 (CEST)Feldberg/Mecklenburg, Duitsland (10282): windrichting: 09.08.2018 01:00:00 - 15.08.2018 01:00:00 (CEST)Feldberg/Mecklenburg, Duitsland (10282): luchtdruk: 09.08.2018 01:00:00 - 15.08.2018 01:00:00 (CEST)Feldberg/Mecklenburg, Duitsland (10282): zicht: 09.08.2018 01:00:00 - 15.08.2018 01:00:00 (CEST)Feldberg/Mecklenburg, Duitsland (10282): Zonneschijnduur: 09.08.2018 01:00:00 - 15.08.2018 01:00:00 (CEST)Feldberg/Mecklenburg, Duitsland (10282): neerslag: 09.08.2018 01:00:00 - 15.08.2018 01:00:00 (CEST)
Datum & Tijd tt [°C] td [°C] tt 5cm [°C] tt -5cm [°C] tt -20cm [°C] tt -100cm [°C] ff [km/u] ff [kn] fx [km/u] fx [kn] dd ppp [hPa] vv [km] sd [min] rr [mm]
15.08.2018 01:00:00 17,4 16,6 17,2 21,3 23,8 20,8 15 8 22 12 WZW 1013,1 9 0 0,2
15.08.2018 00:00:00 17,3 16,2 17,1 21,8 24,1 20,8 12 6 25 14 W 1012,5 7 0 0,0
14.08.2018 23:00:00 18,0 16,2 17,9 22,4 24,6 20,8 16 8 24 13 W 1012,2 25 0 0,0
14.08.2018 22:00:00 18,3 16,5 18,0 23,1 25,0 20,8 14 7 21 12 W 1011,5 30 0 0,0
14.08.2018 21:00:00 17,9 16,6 17,5 24,2 25,3 20,8 13 7 21 11 WZW 1011,0 27 0 0,0
14.08.2018 20:00:00 18,8 16,2 18,2 26,0 25,5 20,8 16 9 34 19 W 1010,3 22 1 0,2
14.08.2018 19:00:00 22,3 13,6 23,1 27,7 25,6 20,8 18 10 30 16 ZW 1009,6 49 18 0,0
14.08.2018 18:00:00 22,4 13,2 23,6 29,1 25,4 20,8 20 11 39 21 WZW 1009,4 57 23 0,0
14.08.2018 17:00:00 22,6 13,4 24,5 30,3 24,9 20,8 21 12 38 21 ZW 1009,3 44 40 0,0
14.08.2018 16:00:00 23,2 13,7 28,4 30,5 24,4 20,8 27 15 39 21 ZW 1009,1 18 44 0,0
14.08.2018 15:00:00 23,1 13,6 27,6 29,1 23,8 20,8 30 16 41 22 WZW 1009,3 34 19 0,0
14.08.2018 14:00:00 23,8 13,5 29,2 30,2 23,1 20,8 23 12 42 23 WZW 1008,7 38 49 0,0
14.08.2018 13:00:00 23,0 12,4 27,7 27,1 22,6 20,8 24 13 37 20 WZW 1008,6 30 33 0,0
14.08.2018 12:00:00 20,4 12,5 23,1 24,8 22,2 20,8 25 14 38 20 ZW 1008,9 37 7 0,0
14.08.2018 11:00:00 19,7 13,4 21,9 24,3 21,9 20,8 25 13 36 19 ZW 1008,7 33 18 0,0
14.08.2018 10:00:00 20,1 14,0 24,9 22,1 21,8 20,7 18 10 32 17 WZW 1008,4 26 22 0,0
14.08.2018 09:00:00 19,0 14,3 21,4 20,5 21,8 20,7 15 8 30 16 WZW 1008,1 30 14 0,0
14.08.2018 08:00:00 17,3 13,8 18,1 19,4 22,1 20,7 16 9 26 14 W 1007,9 21 15 0,0
14.08.2018 07:00:00 16,2 14,2 15,7 18,8 22,4 20,7 9 5 16 9 WZW 1007,5 19 0 0,0
14.08.2018 06:00:00 14,9 13,6 13,7 18,9 22,9 20,7 6 3 12 7 WZW 1007,2 18 0 0,0
14.08.2018 05:00:00 15,2 13,7 14,2 19,5 23,3 20,7 9 5 13 7 ZW 1006,9 22 0 0,0
14.08.2018 04:00:00 16,2 14,0 15,0 20,1 23,8 20,7 9 5 15 8 WZW 1006,6 29 0 0,0
14.08.2018 03:00:00 17,1 14,1 16,0 20,8 24,2 20,7 10 6 17 9 WZW 1006,6 32 0 0,0
14.08.2018 02:00:00 17,9 14,1 16,7 21,6 24,7 20,7 10 6 20 11 ZW 1006,3 36 0 0,0
14.08.2018 01:00:00 18,3 13,4 17,0 22,5 25,2 20,7 7 4 16 9 ZZW 1006,4 39 0 0,0
14.08.2018 00:00:00 19,7 13,2 18,7 23,7 25,7 20,7 11 6 16 9 ZZW 1006,7 44 0 0,0
13.08.2018 23:00:00 21,0 12,7 20,7 24,6 26,2 20,7 9 5 14 8 ZW 1006,4 47 0 0,0
13.08.2018 22:00:00 20,5 12,3 20,0 25,4 26,7 20,7 8 4 12 7 ZW 1006,4 49 0 0,0
13.08.2018 21:00:00 21,6 12,0 20,8 26,8 27,1 20,7 6 3 16 9 ZZW 1006,2 41 6 0,0
13.08.2018 20:00:00 23,3 11,2 23,4 28,1 27,6 20,7 13 7 34 18 WZW 1006,5 41 0 0,0
13.08.2018 19:00:00 25,1 9,9 25,0 29,9 27,8 20,7 14 8 32 17 W 1005,9 37 0 0,0
13.08.2018 18:00:00 26,6 8,1 26,9 32,0 27,9 20,7 22 12 40 22 WZW 1006,2 40 0 0,0
13.08.2018 17:00:00 28,6 5,9 29,5 34,9 27,4 20,8 19 10 29 16 WZW 1005,8 29 20 0,0
13.08.2018 16:00:00 30,5 6,2 34,1 37,5 26,5 20,8 15 8 32 17 ZZW 1005,7 44 59 0,0
13.08.2018 15:00:00 30,7 6,1 35,5 37,1 25,3 20,8 16 9 32 17 ZZW 1006,2 30 60 0,0
13.08.2018 14:00:00 28,4 6,0 32,6 35,7 24,1 20,8 11 6 29 15 ZZO 1006,7 37 60 0,0
13.08.2018 13:00:00 28,4 4,8 33,2 33,7 22,9 20,8 12 6 24 13 ZZO 1007,2 38 60 0,0
13.08.2018 12:00:00 27,8 7,8 32,0 31,0 21,8 20,8 11 6 19 10 O 1007,5 29 56 0,0
13.08.2018 11:00:00 26,1 7,2 30,0 27,8 20,9 20,8 10 5 17 9 O 1008,2 34 60 0,0
13.08.2018 10:00:00 23,4 7,5 26,7 23,9 20,4 20,8 9 5 15 8 OZO 1008,5 21 60 0,0
13.08.2018 09:00:00 20,3 8,7 22,2 20,5 20,3 20,8 8 4 11 6 OZO 1009,0 30 60 0,0
13.08.2018 08:00:00 18,1 9,2 19,2 17,9 20,4 20,8 6 3 10 5 O 1009,3 26 60 0,0
13.08.2018 07:00:00 15,2 9,9 14,9 16,3 20,8 20,8 4 2 8 5 O 1009,4 30 18 0,0
13.08.2018 06:00:00 13,6 9,2 10,2 16,7 21,3 20,8 5 3 9 5 NO 1009,6 28 0 0,0
13.08.2018 05:00:00 13,3 9,7 11,2 17,3 21,7 20,8 2 1 7 4 NO 1010,0 27 0 0,0
13.08.2018 04:00:00 14,1 10,0 12,0 18,0 22,2 20,8 5 3 6 4 NNO 1010,5 30 0 0,0
13.08.2018 03:00:00 13,9 11,2 11,9 18,5 22,7 20,8 5 3 6 4 NO 1010,8 26 0 0,0
13.08.2018 02:00:00 13,3 10,0 12,0 19,4 23,2 20,8 3 2 4 2 N 1011,2 27 0 0,0
13.08.2018 01:00:00 14,7 10,0 13,1 20,6 23,7 20,9 0 0 6 4 N 1011,7 31 0 0,0
13.08.2018 00:00:00 16,6 11,6 15,7 21,6 24,2 20,9 3 2 4 2 NNW 1011,9 11 0 0,0
12.08.2018 23:00:00 16,7 11,2 15,7 22,5 24,7 20,9 2 1 3 1 NNW 1012,1 42 0 0,0
12.08.2018 22:00:00 16,5 11,1 15,7 23,6 25,2 20,9 0 0 3 2 N 1012,4 37 0 0,0
12.08.2018 21:00:00 19,8 8,5 17,4 25,7 25,6 20,9 0 0 11 6 N 1012,8 46 0 0,0
12.08.2018 20:00:00 22,4 6,8 22,5 27,5 25,8 21,0 6 3 16 9 ZW 1012,8 51 4 0,0
12.08.2018 19:00:00 23,2 5,9 23,5 29,9 25,7 21,0 15 8 27 14 ZZW 1013,2 51 36 0,0
12.08.2018 18:00:00 24,4 5,8 27,8 32,2 25,3 21,0 14 8 34 19 ZW 1013,7 38 60 0,0
12.08.2018 17:00:00 24,2 5,6 28,2 33,1 24,5 21,1 18 10 35 19 ZW 1014,3 38 60 0,0
12.08.2018 16:00:00 24,2 6,3 28,6 33,2 23,6 21,1 19 11 35 19 ZW 1015,0 39 60 0,0
12.08.2018 15:00:00 23,7 7,5 28,7 32,0 22,7 21,1 20 11 37 20 WZW 1015,6 26 55 0,0
12.08.2018 14:00:00 22,3 7,0 26,6 30,5 21,7 21,1 16 9 35 19 ZW 1016,4 47 41 0,0
12.08.2018 13:00:00 20,9 6,8 24,8 29,7 20,6 21,1 21 11 38 21 W 1017,0 31 57 0,0
12.08.2018 12:00:00 20,7 7,6 26,1 27,4 19,5 21,2 21 12 38 20 WZW 1017,7 29 53 0,0
12.08.2018 11:00:00 19,8 9,1 24,2 24,3 18,6 21,2 21 11 31 17 ZW 1018,1 32 60 0,0
12.08.2018 10:00:00 17,8 10,5 22,1 20,7 18,0 21,2 14 8 29 15 WZW 1018,5 36 60 0,0
12.08.2018 09:00:00 15,8 10,6 19,0 17,2 17,8 21,2 16 9 24 13 WZW 1018,8 33 60 0,0
12.08.2018 08:00:00 13,9 11,0 15,7 14,5 17,8 21,2 11 6 20 11 WZW 1019,1 37 60 0,0
12.08.2018 07:00:00 11,2 9,7 11,0 12,6 18,1 21,3 8 5 15 8 WZW 1019,4 28 31 0,0
12.08.2018 06:00:00 9,9 9,0 9,0 12,5 18,5 21,3 9 5 14 8 ZW 1019,1 28 0 0,0
12.08.2018 05:00:00 9,1 8,3 7,7 12,8 19,0 21,3 7 4 11 6 ZW 1019,4 29 0 0,0
12.08.2018 04:00:00 9,8 8,6 8,6 13,3 19,4 21,3 10 5 13 7 WZW 1019,4 31 0 0,0
12.08.2018 03:00:00 10,5 9,0 8,9 14,0 19,9 21,3 9 5 14 7 WZW 1019,5 34 0 0,0
12.08.2018 02:00:00 10,8 9,3 9,5 14,6 20,4 21,4 9 5 13 7 WZW 1019,6 34 0 0,0
12.08.2018 01:00:00 11,6 9,9 10,3 15,3 21,0 21,4 9 5 19 10 WZW 1019,7 40 0 0,0
12.08.2018 00:00:00 12,3 10,1 11,0 16,1 21,5 21,4 12 6 20 11 WZW 1019,6 46 0 0,0
11.08.2018 23:00:00 13,0 10,0 11,8 17,0 22,1 21,4 16 8 24 13 W 1019,6 50 0 0,0
11.08.2018 22:00:00 13,1 10,3 12,0 18,4 22,7 21,5 14 8 26 14 WZW 1019,6 53 0 0,0
11.08.2018 21:00:00 14,6 10,8 13,5 20,4 23,1 21,5 23 12 37 20 W 1019,3 46 0 0,0
11.08.2018 20:00:00 17,1 8,2 16,6 22,5 23,3 21,5 17 9 49 27 W 1018,4 57 41 0,0
11.08.2018 19:00:00 19,0 6,5 20,3 24,3 23,4 21,5 34 18 49 27 WZW 1017,8 22 27 0,0
11.08.2018 18:00:00 19,5 6,6 20,9 26,2 23,1 21,6 32 17 47 26 WZW 1017,6 48 41 0,0
11.08.2018 17:00:00 19,7 5,8 21,6 26,8 22,7 21,6 33 18 56 31 WZW 1017,6 40 30 0,0
11.08.2018 16:00:00 20,9 5,8 24,4 27,1 22,2 21,6 30 16 46 25 ZW 1017,5 34 29 0,0
11.08.2018 15:00:00 19,1 6,4 20,6 27,1 21,6 21,6 30 16 46 25 ZW 1017,8 54 28 0,0
11.08.2018 14:00:00 19,2 7,8 22,4 26,0 21,0 21,7 29 16 42 23 WZW 1018,3 37 34 0,0
11.08.2018 13:00:00 17,5 8,5 19,2 23,2 20,5 21,7 24 13 44 24 WZW 1018,7 35 2 0,0
11.08.2018 12:00:00 18,3 8,3 19,7 23,0 20,0 21,7 21 12 42 23 W 1018,6 51 21 0,0
11.08.2018 11:00:00 19,0 8,4 20,7 20,8 19,5 21,7 26 14 38 20 W 1018,7 34 19 0,0
11.08.2018 10:00:00 19,7 8,5 22,5 19,1 19,3 21,7 23 12 34 19 WZW 1018,1 39 31 0,0
11.08.2018 09:00:00 18,5 9,4 19,0 17,4 19,2 21,8 17 9 28 15 ZZW 1018,0 40 10 0,0
11.08.2018 08:00:00 16,5 9,7 16,5 15,7 19,3 21,8 11 6 20 11 Z 1018,2 41 0 0,0
11.08.2018 07:00:00 15,3 9,8 14,6 14,9 19,5 21,8 12 6 22 12 Z 1018,4 40 0 0,0
11.08.2018 06:00:00 14,1 9,4 12,7 14,7 19,8 21,8 9 5 15 8 Z 1018,9 46 0 0,0
11.08.2018 05:00:00 15,1 9,6 13,7 14,8 20,1 21,8 7 4 17 9 ZZO 1019,3 49 0 0,0
11.08.2018 04:00:00 15,2 9,2 13,8 15,1 20,4 21,8 7 4 19 11 ZZO 1020,1 51 0 0,0
11.08.2018 03:00:00 15,8 8,9 13,2 15,5 20,8 21,8 7 4 12 6 ZO 1020,6 58 0 0,0
11.08.2018 02:00:00 12,2 9,9 10,4 15,2 21,3 21,8 4 2 8 4 ZO 1021,3 38 0 0,0
11.08.2018 01:00:00 12,5 10,4 10,0 15,8 21,9 21,9 2 1 4 2 ONO 1021,6 37 0 0,0
11.08.2018 00:00:00 12,1 10,5 10,1 16,5 22,4 21,9 0 0 3 2 N 1021,8 35 0 0,0
10.08.2018 23:00:00 13,3 10,6 10,9 17,5 23,0 21,9 0 0 3 1 N 1021,9 43 0 0,0
10.08.2018 22:00:00 13,5 10,9 11,5 18,7 23,5 21,9 2 1 5 3 WNW 1021,9 46 0 0,0
10.08.2018 21:00:00 17,2 9,8 13,8 20,2 23,9 21,9 2 1 10 5 Z 1021,4 62 18 0,0
10.08.2018 20:00:00 20,5 8,4 20,0 21,8 24,3 21,9 9 5 22 12 ZZW 1021,0 60 49 0,0
10.08.2018 19:00:00 21,2 7,4 21,2 23,2 24,4 21,9 18 10 30 16 WZW 1021,0 58 53 0,0
10.08.2018 18:00:00 22,4 8,7 24,5 24,5 24,4 21,9 21 11 35 19 W 1021,0 45 38 0,0
10.08.2018 17:00:00 22,9 8,9 25,7 25,8 24,2 21,9 20 11 37 20 ZW 1020,9 46 50 0,0
10.08.2018 16:00:00 22,0 9,2 25,4 26,1 23,8 21,9 22 12 37 20 W 1020,9 53 43 0,0
10.08.2018 15:00:00 20,7 9,5 23,0 25,9 23,5 21,9 23 12 37 20 WZW 1020,7 46 39 0,0
10.08.2018 14:00:00 20,5 10,9 23,2 24,4 23,3 21,9 22 12 40 22 WZW 1020,4 47 28 0,0
10.08.2018 13:00:00 19,6 11,1 21,6 22,5 23,2 21,9 26 14 42 23 W 1019,9 48 13 0,0
10.08.2018 12:00:00 19,3 11,5 20,8 21,6 23,2 21,9 25 14 36 20 WZW 1019,5 38 5 0,0
10.08.2018 11:00:00 18,5 11,6 19,5 20,6 23,4 21,9 29 16 43 23 W 1018,9 41 0 0,0
10.08.2018 10:00:00 18,5 12,9 19,0 20,6 23,6 21,9 23 12 45 24 WZW 1018,0 57 0 0,0
10.08.2018 09:00:00 18,9 13,0 19,5 21,0 23,8 21,8 25 14 43 23 WZW 1016,8 47 25 0,0
10.08.2018 08:00:00 18,8 13,2 19,7 19,8 24,3 21,8 27 14 44 24 WZW 1015,7 47 7 0,0
10.08.2018 07:00:00 18,3 13,8 17,7 19,8 24,8 21,8 21 11 36 19 WZW 1014,9 39 7 0,0
10.08.2018 06:00:00 18,5 14,8 17,7 20,2 25,3 21,8 23 12 36 20 WZW 1013,8 39 0 0,0
10.08.2018 05:00:00 18,6 17,0 17,7 21,0 25,9 21,8 12 6 27 14 ZW 1012,9 24 0 0,0
10.08.2018 04:00:00 19,2 17,5 18,3 21,7 26,6 21,8 16 8 29 16 WZW 1012,2 21 0 0,0
10.08.2018 03:00:00 19,7 18,3 18,8 22,6 27,3 21,8 14 8 27 14 ZW 1011,5 14 0 0,0
10.08.2018 02:00:00 20,4 19,1 19,6 23,5 28,0 21,8 17 9 27 15 ZW 1010,7 14 0 0,0
10.08.2018 01:00:00 20,6 19,4 20,2 24,7 28,8 21,7 11 6 16 9 ZZW 1010,2 15 0 0,8
10.08.2018 00:00:00 20,3 19,4 20,3 25,8 29,5 21,7 9 5 39 21 OZO 1009,9 4,3 0 8,1
09.08.2018 23:00:00 22,7 17,0 22,8 28,9 30,0 21,7 31 17 56 30 W 1011,2 38 0 0,0
09.08.2018 22:00:00 25,2 20,2 24,5 30,1 30,5 21,7 11 6 23 12 O 1008,3 18 0 0,0
09.08.2018 21:00:00 26,4 20,3 25,9 31,6 30,9 21,7 14 8 30 16 ONO 1008,6 17 0 0,0
09.08.2018 20:00:00 28,2 19,9 28,0 33,7 31,1 21,7 16 9 27 15 ONO 1009,3 23 29 0,0
09.08.2018 19:00:00 31,1 15,9 32,2 35,7 31,0 21,7 15 8 29 16 OZO 1010,1 26 60 0,0
09.08.2018 18:00:00 32,0 15,9 34,6 37,2 30,7 21,7 19 10 27 15 O 1010,8 27 60 0,0
09.08.2018 17:00:00 31,9 16,1 35,7 38,2 30,2 21,7 16 9 27 15 OZO 1011,4 23 57 0,0
09.08.2018 16:00:00 31,4 16,5 36,5 38,5 29,5 21,7 16 9 31 17 O 1012,3 22 60 0,0
09.08.2018 15:00:00 30,8 17,5 36,3 38,1 28,6 21,7 17 9 31 17 OZO 1013,3 19 60 0,0
09.08.2018 14:00:00 29,6 18,0 35,2 36,8 27,7 21,7 13 7 26 14 O 1014,2 24 60 0,0
09.08.2018 13:00:00 27,7 17,3 32,7 35,0 26,8 21,7 14 8 26 14 O 1015,0 20 60 0,0
09.08.2018 12:00:00 26,8 17,0 31,4 32,4 26,1 21,7 14 7 21 11 O 1015,5 28 29 0,0
09.08.2018 11:00:00 26,1 16,7 30,7 30,4 25,6 21,7 12 6 23 12 O 1016,4 17 60 0,0
09.08.2018 10:00:00 23,8 16,7 29,5 27,6 25,4 21,6 9 5 - - O 1016,4 - - 0,0
09.08.2018 09:00:00 - - - - - - - - - - - - - - 0,0
09.08.2018 08:00:00 20,6 16,7 22,9 23,5 25,7 21,6 13 7 20 11 N 1016,1 19 53 0,0
09.08.2018 07:00:00 18,9 16,9 19,0 22,8 26,1 21,6 9 5 13 7 N 1016,3 9 1 0,0
09.08.2018 06:00:00 18,1 16,5 17,1 23,1 26,5 21,6 7 4 16 9 N 1015,8 7 0 0,0
09.08.2018 05:00:00 19,0 17,3 18,2 23,7 27,0 21,6 9 5 14 8 NNO 1015,4 8 0 0,0
09.08.2018 04:00:00 19,8 17,5 18,9 24,3 27,5 21,5 12 7 25 13 N 1015,0 10 0 0,0
09.08.2018 03:00:00 20,7 17,8 19,9 25,0 28,0 21,5 16 8 27 15 NNW 1014,5 12 0 0,0
09.08.2018 02:00:00 21,2 17,7 20,3 25,8 28,6 21,5 16 8 26 14 NNW 1014,2 13 0 0,0
09.08.2018 01:00:00 22,3 17,7 21,2 26,8 29,1 21,5 11 6 22 12 NW 1014,0 22 0 0,0

tt = temperatuur
td = dauwpunt
tt 5cm = temperatuur 5cm
tt -5cm = temperatuur -5cm
tt -20cm = temperatuur -20cm
tt -100cm = temperatuur -100cm
ff = windsnelheid
fx = windstoten
dd = windrichting
ppp = luchtdruk
vv = zicht
sd = Zonneschijnduur
rr = neerslag

Weerstations in de omgeving